QPF
0.00 0.01 0.03 0.01 0.01 0.00 0.00 0.01 0.01 0.01 0.01 0.02 0.02 0.02 0.03 0.03 0.03 0.03 0.03 0.03 0.03 0.04 0.02 0.01 0.00 0.00 0.00 0.00 0.00 0.00 0.00 0.00 0.00 0.00 0.00 0.01 0.01 0.01 0.01 0.00 0.00 0.01 0.01
0.00 0.01 0.02 0.01 0.01 0.01 0.01 0.01 0.01 0.01 0.01 0.01 0.02 0.03 0.03 0.03 0.03 0.03 0.03 0.03 0.03 0.02 0.01 0.00 0.00 0.00 0.01 0.00 0.00 0.00 0.00 0.00 0.00 0.00 0.00 0.00 0.00 0.00 0.00 0.01 0.01 0.01 0.01
0.00 0.01 0.01 0.01 0.01 0.01 0.01 0.01 0.01 0.01 0.01 0.01 0.02 0.02 0.03 0.03 0.03 0.03 0.02 0.02 0.02 0.01 0.00 0.00 0.00 0.00 0.00 0.00 0.00 0.00 0.00 0.00 0.00 0.00 0.00 0.00 0.00 0.00 0.00 0.00 0.00 0.00 0.01
0.01 0.01 0.01 0.01 0.01 0.01 0.01 0.01 0.01 0.01 0.01 0.01 0.02 0.02 0.03 0.03 0.02 0.02 0.01 0.01 0.00 0.00 0.00 0.00 0.00 0.00 0.00 0.00 0.00 0.00 0.00 0.00 0.00 0.00 0.00 0.00 0.00 0.00 0.00 0.00 0.00 0.00 0.00
0.01 0.01 0.01 0.01 0.01 0.01 0.01 0.01 0.01 0.01 0.01 0.01 0.02 0.02 0.02 0.01 0.01 0.01 0.00 0.00 0.00 0.00 0.00 0.00 0.00 0.00 0.00 0.00 0.00 0.00 0.00 0.00 0.00 0.00 0.00 0.00 0.00 0.00 0.00 0.00 0.00 0.00 0.00
0.02 0.01 0.02 0.01 0.01 0.01 0.01 0.01 0.01 0.01 0.01 0.01 0.01 0.01 0.01 0.01 0.01 0.00 0.00 0.00 0.00 0.00 0.00 0.00 0.00 0.00 0.00 0.00 0.00 0.00 0.00 0.00 0.00 0.00 0.00 0.00 0.00 0.00 0.00 0.00 0.00 0.00 0.00
0.02 0.02 0.02 0.01 0.01 0.01 0.01 0.01 0.01 0.00 0.00 0.01 0.01 0.01 0.00 0.00 0.00 0.00 0.00 0.00 0.00 0.00 0.00 0.00 0.00 0.00 0.00 0.00 0.00 0.00 0.00 0.00 0.00 0.00 0.00 0.00 0.00 0.00 0.00 0.00 0.00 0.00 0.00
0.03 0.03 0.03 0.02 0.01 0.01 0.01 0.01 0.01 0.00 0.01 0.01 0.01 0.00 0.00 0.00 0.00 0.00 0.00 0.00 0.00 0.00 0.00 0.00 0.00 0.00 0.00 0.00 0.00 0.00 0.00 0.00 0.00 0.00 0.00 0.00 0.00 0.00 0.00 0.00 0.00 0.00 0.00
0.04 0.04 0.03 0.02 0.01 0.01 0.01 0.01 0.01 0.01 0.01 0.00 0.00 0.00 0.00 0.00 0.00 0.00 0.00 0.00 0.00 0.00 0.00 0.00 0.00 0.00 0.00 0.00 0.00 0.00 0.00 0.00 0.00 0.00 0.00 0.00 0.00 0.00 0.00 0.00 0.00 0.00 0.00
0.08 0.06 0.03 0.02 0.01 0.01 0.01 0.01 0.01 0.00 0.00 0.00 0.00 0.00 0.00 0.00 0.00 0.00 0.00 0.00 0.00 0.00 0.00 0.00 0.00 0.00 0.00 0.00 0.00 0.00 0.00 0.00 0.00 0.00 0.00 0.00 0.00 0.00 0.00 0.00 0.00 0.00 0.00
0.11 0.07 0.04 0.02 0.01 0.01 0.01 0.01 0.01 0.00 0.00 0.00 0.00 0.00 0.00 0.00 0.00 0.00 0.00 0.00 0.00 0.00 0.00 0.00 0.00 0.00 0.00 0.00 0.00 0.00 0.00 0.00 0.00 0.00 0.00 0.00 0.00 0.00 0.00 0.00 0.00 0.00 0.00
0.12 0.08 0.05 0.02 0.01 0.01 0.01 0.01 0.01 0.00 0.00 0.00 0.00 0.00 0.00 0.00 0.00 0.00 0.00 0.00 0.00 0.00 0.00 0.00 0.00 0.00 0.00 0.00 0.00 0.00 0.00 0.00 0.00 0.00 0.00 0.00 0.00 0.00 0.01 0.00 0.00 0.00 0.00
0.14 0.10 0.08 0.04 0.02 0.01 0.01 0.01 0.00 0.00 0.00 0.00 0.00 0.00 0.00 0.00 0.00 0.00 0.00 0.00 0.00 0.00 0.00 0.00 0.00 0.00 0.00 0.00 0.00 0.00 0.00 0.00 0.00 0.00 0.00 0.00 0.00 0.01 0.01 0.01 0.01 0.01 0.00
0.20 0.14 0.09 0.05 0.02 0.01 0.01 0.01 0.00 0.00 0.00 0.00 0.00 0.00 0.00 0.00 0.00 0.00 0.00 0.00 0.00 0.00 0.00 0.00 0.00 0.00 0.00 0.00 0.00 0.00 0.00 0.00 0.00 0.00 0.00 0.00 0.00 0.00 0.01 0.01 0.01 0.01 0.01
0.22 0.19 0.13 0.07 0.04 0.02 0.01 0.01 0.01 0.00 0.00 0.00 0.00 0.00 0.00 0.00 0.00 0.00 0.00 0.00 0.00 0.00 0.00 0.00 0.00 0.00 0.00 0.00 0.00 0.00 0.00 0.00 0.00 0.00 0.00 0.00 0.00 0.00 0.00 0.01 0.02 0.02 0.03
0.21 0.18 0.17 0.13 0.08 0.05 0.02 0.02 0.01 0.00 0.00 0.00 0.00 0.00 0.00 0.00 0.00 0.00 0.00 0.00 0.00 0.00 0.00 0.00 0.00 0.00 0.00 0.00 0.00 0.00 0.00 0.00 0.00 0.00 0.00 0.00 0.00 0.00 0.00 0.01 0.03 0.03 0.04
0.20 0.18 0.18 0.15 0.14 0.12 0.06 0.03 0.02 0.01 0.00 0.00 0.00 0.00 0.00 0.00 0.00 0.00 0.00 0.00 0.00 0.00 0.00 0.00 0.00 0.00 0.00 0.00 0.00 0.00 0.00 0.00 0.00 0.00 0.00 0.00 0.00 0.00 0.00 0.01 0.02 0.03 0.04
0.22 0.18 0.16 0.15 0.17 0.16 0.10 0.07 0.04 0.03 0.02 0.01 0.00 0.00 0.00 0.00 0.00 0.00 0.00 0.00 0.00 0.00 0.00 0.00 0.00 0.00 0.00 0.00 0.00 0.00 0.00 0.00 0.00 0.00 0.00 0.00 0.00 0.00 0.00 0.00 0.01 0.01 0.02
0.22 0.21 0.19 0.16 0.17 0.19 0.16 0.13 0.11 0.07 0.04 0.04 0.02 0.01 0.01 0.00 0.00 0.00 0.00 0.00 0.00 0.00 0.00 0.00 0.00 0.00 0.00 0.00 0.00 0.00 0.00 0.00 0.00 0.00 0.00 0.00 0.00 0.00 0.00 0.00 0.00 0.00 0.01
0.26 0.26 0.24 0.22 0.22 0.22 0.21 0.17 0.14 0.10 0.07 0.06 0.05 0.04 0.03 0.01 0.00 0.00 0.00 0.00 0.00 0.00 0.00 0.00 0.00 0.00 0.00 0.00 0.00 0.00 0.00 0.00 0.00 0.00 0.00 0.00 0.00 0.00 0.00 0.00 0.00 0.00 0.00
0.31 0.31 0.30 0.29 0.28 0.28 0.25 0.22 0.19 0.16 0.13 0.11 0.10 0.10 0.07 0.04 0.02 0.01 0.00 0.01 0.01 0.01 0.00 0.00 0.00 0.00 0.00 0.00 0.00 0.00 0.00 0.00 0.00 0.00 0.00 0.00 0.00 0.00 0.00 0.00 0.00 0.00 0.00
0.27 0.30 0.31 0.33 0.33 0.31 0.27 0.26 0.26 0.25 0.23 0.19 0.17 0.16 0.13 0.08 0.05 0.04 0.03 0.03 0.02 0.01 0.01 0.01 0.01 0.01 0.01 0.01 0.01 0.01 0.00 0.00 0.00 0.00 0.00 0.00 0.00 0.00 0.00 0.00 0.00 0.00 0.00
0.20 0.23 0.25 0.28 0.29 0.28 0.30 0.33 0.34 0.33 0.28 0.24 0.22 0.20 0.17 0.13 0.10 0.08 0.05 0.03 0.02 0.01 0.01 0.01 0.01 0.01 0.00 0.00 0.00 0.01 0.01 0.00 0.00 0.00 0.00 0.00 0.00 0.00 0.00 0.00 0.00 0.00 0.00
0.12 0.17 0.20 0.23 0.25 0.28 0.32 0.34 0.32 0.29 0.27 0.25 0.23 0.20 0.18 0.15 0.11 0.08 0.06 0.05 0.04 0.03 0.02 0.01 0.01 0.01 0.00 0.00 0.00 0.00 0.01 0.01 0.01 0.00 0.00 0.00 0.00 0.00 0.00 0.00 0.00 0.00 0.00
0.07 0.12 0.15 0.17 0.21 0.25 0.26 0.27 0.28 0.26 0.23 0.22 0.22 0.21 0.19 0.18 0.16 0.14 0.11 0.08 0.06 0.04 0.03 0.02 0.01 0.01 0.00 0.00 0.00 0.00 0.00 0.00 0.01 0.01 0.00 0.00 0.00 0.00 0.00 0.00 0.00 0.00 0.00
0.03 0.06 0.09 0.12 0.16 0.20 0.23 0.23 0.22 0.20 0.18 0.17 0.16 0.16 0.16 0.15 0.14 0.13 0.12 0.11 0.08 0.05 0.03 0.02 0.01 0.01 0.00 0.00 0.00 0.00 0.00 0.00 0.00 0.01 0.01 0.00 0.00 0.00 0.00 0.00 0.00 0.01 0.01
MSLP
1013.11 1012.87 1012.83 1013.01 1013.37 1013.81 1014.24 1014.58 1014.78 1014.84 1014.80 1014.74 1014.73 1014.83 1015.04 1015.37 1015.75 1016.15 1016.50 1016.79 1017.01 1017.20 1017.38 1017.58 1017.82 1018.08 1018.35 1018.58 1018.74 1018.82 1018.81 1018.75 1018.67 1018.60 1018.57 1018.58 1018.63 1018.67 1018.70 1018.68 1018.60 1018.49 1018.36
1012.87 1012.72 1012.76 1013.01 1013.41 1013.88 1014.33 1014.67 1014.88 1014.95 1014.94 1014.92 1014.96 1015.11 1015.39 1015.76 1016.20 1016.62 1016.99 1017.27 1017.48 1017.64 1017.78 1017.94 1018.14 1018.37 1018.61 1018.82 1018.97 1019.04 1019.04 1019.00 1018.94 1018.89 1018.89 1018.92 1018.97 1019.02 1019.03 1019.00 1018.91 1018.79 1018.65
1012.53 1012.49 1012.63 1012.96 1013.42 1013.93 1014.41 1014.78 1015.01 1015.11 1015.13 1015.15 1015.23 1015.43 1015.75 1016.17 1016.63 1017.07 1017.44 1017.71 1017.90 1018.02 1018.13 1018.25 1018.41 1018.60 1018.81 1019.01 1019.15 1019.24 1019.26 1019.25 1019.22 1019.21 1019.23 1019.27 1019.33 1019.37 1019.37 1019.33 1019.23 1019.09 1018.95
1012.19 1012.26 1012.50 1012.90 1013.43 1013.99 1014.51 1014.91 1015.17 1015.30 1015.35 1015.41 1015.53 1015.75 1016.10 1016.53 1017.00 1017.44 1017.80 1018.06 1018.22 1018.32 1018.40 1018.50 1018.63 1018.80 1018.99 1019.18 1019.33 1019.44 1019.49 1019.52 1019.53 1019.54 1019.58 1019.63 1019.68 1019.71 1019.70 1019.64 1019.53 1019.39 1019.26
1011.95 1012.11 1012.43 1012.91 1013.49 1014.09 1014.64 1015.07 1015.35 1015.51 1015.59 1015.67 1015.80 1016.04 1016.39 1016.82 1017.28 1017.70 1018.05 1018.30 1018.45 1018.54 1018.61 1018.70 1018.82 1018.98 1019.17 1019.37 1019.54 1019.66 1019.75 1019.80 1019.84 1019.87 1019.92 1019.96 1020.00 1020.01 1019.98 1019.91 1019.80 1019.67 1019.54
1011.90 1012.12 1012.50 1013.02 1013.63 1014.25 1014.81 1015.25 1015.55 1015.72 1015.83 1015.92 1016.07 1016.31 1016.65 1017.05 1017.49 1017.89 1018.23 1018.46 1018.62 1018.72 1018.79 1018.89 1019.02 1019.19 1019.39 1019.59 1019.77 1019.92 1020.02 1020.09 1020.14 1020.18 1020.21 1020.24 1020.26 1020.25 1020.20 1020.13 1020.02 1019.91 1019.81
1012.05 1012.32 1012.72 1013.25 1013.85 1014.46 1015.01 1015.44 1015.75 1015.94 1016.06 1016.17 1016.33 1016.56 1016.89 1017.27 1017.68 1018.06 1018.37 1018.60 1018.76 1018.88 1018.97 1019.09 1019.24 1019.42 1019.63 1019.85 1020.04 1020.19 1020.30 1020.37 1020.41 1020.43 1020.44 1020.45 1020.44 1020.41 1020.36 1020.28 1020.20 1020.11 1020.04
1012.40 1012.67 1013.07 1013.57 1014.13 1014.70 1015.21 1015.63 1015.93 1016.14 1016.29 1016.43 1016.60 1016.84 1017.16 1017.52 1017.89 1018.24 1018.54 1018.76 1018.93 1019.06 1019.18 1019.31 1019.48 1019.68 1019.90 1020.11 1020.30 1020.45 1020.55 1020.60 1020.62 1020.62 1020.60 1020.58 1020.55 1020.50 1020.45 1020.38 1020.32 1020.27 1020.23
1012.83 1013.11 1013.47 1013.92 1014.42 1014.92 1015.39 1015.78 1016.09 1016.32 1016.51 1016.69 1016.90 1017.16 1017.47 1017.81 1018.16 1018.48 1018.75 1018.97 1019.13 1019.27 1019.40 1019.55 1019.73 1019.93 1020.15 1020.35 1020.53 1020.65 1020.73 1020.77 1020.76 1020.73 1020.69 1020.64 1020.59 1020.54 1020.49 1020.44 1020.41 1020.39 1020.39
1013.24 1013.51 1013.84 1014.22 1014.65 1015.08 1015.50 1015.87 1016.18 1016.45 1016.70 1016.94 1017.20 1017.50 1017.82 1018.15 1018.48 1018.77 1019.01 1019.20 1019.36 1019.49 1019.63 1019.78 1019.95 1020.15 1020.35 1020.53 1020.68 1020.79 1020.84 1020.85 1020.82 1020.77 1020.71 1020.65 1020.59 1020.53 1020.49 1020.47 1020.46 1020.46 1020.49
1013.53 1013.80 1014.09 1014.42 1014.77 1015.14 1015.51 1015.87 1016.21 1016.53 1016.84 1017.16 1017.48 1017.82 1018.16 1018.50 1018.80 1019.07 1019.28 1019.44 1019.58 1019.70 1019.82 1019.96 1020.12 1020.30 1020.47 1020.63 1020.75 1020.83 1020.86 1020.85 1020.81 1020.75 1020.68 1020.61 1020.54 1020.50 1020.46 1020.45 1020.45 1020.48 1020.52
1013.63 1013.91 1014.19 1014.47 1014.77 1015.09 1015.43 1015.78 1016.15 1016.53 1016.91 1017.30 1017.70 1018.08 1018.45 1018.79 1019.08 1019.31 1019.50 1019.64 1019.75 1019.86 1019.97 1020.09 1020.23 1020.38 1020.52 1020.65 1020.74 1020.80 1020.81 1020.79 1020.74 1020.67 1020.60 1020.53 1020.47 1020.42 1020.38 1020.37 1020.38 1020.41 1020.46
1013.54 1013.84 1014.11 1014.37 1014.63 1014.92 1015.25 1015.62 1016.02 1016.45 1016.90 1017.36 1017.81 1018.24 1018.63 1018.97 1019.24 1019.46 1019.63 1019.75 1019.85 1019.94 1020.04 1020.15 1020.27 1020.39 1020.51 1020.61 1020.67 1020.71 1020.71 1020.68 1020.63 1020.56 1020.48 1020.41 1020.34 1020.29 1020.25 1020.23 1020.23 1020.25 1020.29
1013.28 1013.62 1013.90 1014.15 1014.40 1014.68 1015.01 1015.40 1015.84 1016.32 1016.83 1017.33 1017.82 1018.27 1018.67 1019.00 1019.27 1019.48 1019.64 1019.76 1019.86 1019.95 1020.05 1020.15 1020.26 1020.36 1020.45 1020.53 1020.57 1020.59 1020.58 1020.54 1020.48 1020.41 1020.33 1020.25 1020.17 1020.10 1020.04 1020.00 1019.98 1019.99 1020.03
1012.95 1013.31 1013.60 1013.86 1014.11 1014.41 1014.76 1015.17 1015.64 1016.16 1016.70 1017.23 1017.73 1018.18 1018.57 1018.89 1019.15 1019.36 1019.52 1019.66 1019.78 1019.89 1020.00 1020.11 1020.22 1020.31 1020.39 1020.44 1020.46 1020.46 1020.43 1020.38 1020.31 1020.23 1020.14 1020.04 1019.94 1019.84 1019.76 1019.69 1019.66 1019.66 1019.69
1012.60 1012.98 1013.28 1013.56 1013.83 1014.15 1014.53 1014.97 1015.47 1016.01 1016.56 1017.08 1017.57 1018.00 1018.36 1018.67 1018.91 1019.12 1019.30 1019.46 1019.62 1019.77 1019.91 1020.04 1020.16 1020.25 1020.32 1020.35 1020.36 1020.33 1020.28 1020.21 1020.13 1020.02 1019.91 1019.79 1019.66 1019.54 1019.44 1019.35 1019.31 1019.30 1019.33
1012.31 1012.68 1012.99 1013.28 1013.59 1013.94 1014.35 1014.83 1015.35 1015.90 1016.44 1016.94 1017.39 1017.77 1018.09 1018.36 1018.60 1018.81 1019.01 1019.21 1019.41 1019.60 1019.79 1019.96 1020.09 1020.20 1020.25 1020.28 1020.26 1020.21 1020.14 1020.04 1019.93 1019.80 1019.66 1019.52 1019.37 1019.24 1019.12 1019.03 1018.99 1018.99 1019.04
1012.10 1012.44 1012.75 1013.06 1013.40 1013.79 1014.24 1014.75 1015.29 1015.83 1016.35 1016.81 1017.21 1017.54 1017.81 1018.04 1018.25 1018.46 1018.68 1018.92 1019.17 1019.41 1019.65 1019.85 1020.01 1020.13 1020.19 1020.20 1020.17 1020.10 1020.00 1019.88 1019.74 1019.59 1019.43 1019.28 1019.12 1018.99 1018.88 1018.80 1018.78 1018.80 1018.87
1011.95 1012.26 1012.56 1012.88 1013.25 1013.68 1014.18 1014.72 1015.27 1015.81 1016.29 1016.71 1017.05 1017.31 1017.53 1017.72 1017.91 1018.12 1018.36 1018.63 1018.92 1019.21 1019.49 1019.73 1019.91 1020.04 1020.11 1020.12 1020.08 1019.99 1019.88 1019.74 1019.58 1019.42 1019.26 1019.10 1018.96 1018.84 1018.76 1018.72 1018.73 1018.79 1018.89
1011.85 1012.11 1012.39 1012.73 1013.12 1013.60 1014.13 1014.69 1015.26 1015.78 1016.24 1016.61 1016.89 1017.11 1017.28 1017.43 1017.61 1017.81 1018.07 1018.36 1018.68 1019.01 1019.32 1019.59 1019.80 1019.95 1020.03 1020.04 1020.00 1019.92 1019.79 1019.65 1019.49 1019.33 1019.18 1019.04 1018.93 1018.85 1018.82 1018.83 1018.89 1018.98 1019.11
1011.75 1011.98 1012.24 1012.58 1013.00 1013.50 1014.06 1014.64 1015.21 1015.72 1016.15 1016.48 1016.73 1016.90 1017.04 1017.18 1017.34 1017.56 1017.82 1018.14 1018.48 1018.84 1019.17 1019.46 1019.70 1019.87 1019.96 1019.99 1019.96 1019.89 1019.78 1019.64 1019.49 1019.35 1019.22 1019.12 1019.05 1019.03 1019.05 1019.12 1019.23 1019.36 1019.50
1011.66 1011.85 1012.10 1012.44 1012.87 1013.38 1013.95 1014.54 1015.10 1015.59 1016.00 1016.31 1016.53 1016.69 1016.82 1016.96 1017.13 1017.36 1017.64 1017.98 1018.34 1018.71 1019.07 1019.38 1019.64 1019.82 1019.94 1020.00 1019.99 1019.94 1019.84 1019.73 1019.60 1019.48 1019.39 1019.33 1019.31 1019.35 1019.43 1019.56 1019.71 1019.86 1020.00
1011.57 1011.74 1011.98 1012.32 1012.75 1013.25 1013.81 1014.37 1014.91 1015.38 1015.77 1016.06 1016.28 1016.45 1016.60 1016.77 1016.98 1017.24 1017.55 1017.91 1018.29 1018.68 1019.04 1019.37 1019.65 1019.86 1020.00 1020.08 1020.10 1020.08 1020.01 1019.92 1019.82 1019.73 1019.66 1019.64 1019.67 1019.76 1019.89 1020.06 1020.24 1020.40 1020.53
1011.54 1011.70 1011.92 1012.24 1012.65 1013.13 1013.64 1014.17 1014.67 1015.10 1015.47 1015.76 1016.00 1016.20 1016.40 1016.62 1016.89 1017.20 1017.55 1017.94 1018.35 1018.75 1019.12 1019.46 1019.75 1019.98 1020.15 1020.25 1020.30 1020.30 1020.25 1020.18 1020.10 1020.03 1019.99 1019.99 1020.06 1020.18 1020.34 1020.53 1020.73 1020.89 1021.00
1011.58 1011.74 1011.96 1012.25 1012.62 1013.05 1013.51 1013.97 1014.41 1014.80 1015.15 1015.44 1015.71 1015.96 1016.23 1016.53 1016.86 1017.24 1017.65 1018.08 1018.50 1018.92 1019.30 1019.64 1019.94 1020.18 1020.36 1020.49 1020.55 1020.57 1020.53 1020.47 1020.39 1020.33 1020.29 1020.31 1020.39 1020.52 1020.70 1020.91 1021.10 1021.26 1021.36
1011.75 1011.90 1012.11 1012.37 1012.69 1013.05 1013.43 1013.82 1014.19 1014.53 1014.85 1015.16 1015.46 1015.77 1016.12 1016.50 1016.92 1017.37 1017.83 1018.29 1018.74 1019.16 1019.54 1019.88 1020.17 1020.42 1020.60 1020.74 1020.81 1020.83 1020.80 1020.73 1020.64 1020.57 1020.53 1020.54 1020.61 1020.75 1020.93 1021.14 1021.33 1021.48 1021.57
Thickness
5753 5755 5754 5753 5751 5750 5749 5748 5747 5746 5746 5746 5745 5744 5743 5742 5740 5738 5736 5734 5733 5731 5729 5728 5726 5725 5724 5722 5721 5720 5719 5719 5718 5717 5717 5717 5717 5716 5715 5714 5713 5713 5712
5754 5753 5751 5750 5748 5747 5746 5745 5744 5743 5743 5742 5742 5741 5740 5739 5737 5736 5734 5731 5730 5728 5726 5725 5723 5722 5720 5719 5718 5717 5716 5716 5715 5714 5714 5714 5714 5713 5712 5711 5711 5710 5709
5751 5750 5748 5746 5745 5744 5743 5742 5741 5740 5740 5739 5739 5738 5737 5736 5734 5732 5730 5729 5727 5725 5723 5722 5720 5719 5717 5717 5716 5714 5714 5713 5712 5712 5711 5711 5711 5710 5709 5708 5707 5706 5705
5746 5745 5744 5743 5741 5740 5739 5739 5737 5736 5736 5735 5735 5734 5733 5732 5731 5729 5727 5725 5724 5722 5720 5718 5717 5715 5714 5713 5713 5712 5711 5710 5710 5709 5708 5708 5708 5707 5706 5705 5704 5703 5702
5740 5740 5739 5738 5737 5736 5736 5735 5734 5733 5732 5732 5731 5730 5729 5728 5727 5725 5723 5722 5720 5718 5716 5715 5714 5712 5712 5711 5710 5709 5708 5707 5706 5706 5705 5705 5704 5704 5703 5702 5701 5700 5698
5734 5734 5734 5733 5733 5732 5731 5731 5730 5729 5729 5728 5727 5726 5725 5724 5723 5721 5720 5718 5716 5715 5713 5712 5711 5710 5709 5708 5707 5707 5705 5704 5704 5703 5702 5702 5701 5701 5700 5699 5698 5696 5695
5727 5728 5728 5728 5728 5727 5727 5727 5726 5725 5725 5724 5723 5722 5721 5720 5719 5717 5716 5714 5713 5712 5710 5709 5708 5707 5706 5706 5705 5704 5702 5701 5701 5700 5699 5699 5698 5698 5697 5695 5694 5692 5691
5721 5722 5722 5723 5723 5722 5722 5722 5722 5721 5720 5719 5718 5718 5717 5716 5714 5713 5712 5711 5710 5708 5707 5706 5705 5704 5703 5703 5702 5701 5700 5699 5698 5697 5697 5696 5695 5695 5694 5692 5690 5689 5687
5714 5715 5716 5717 5717 5717 5717 5717 5717 5716 5716 5715 5714 5713 5712 5711 5710 5709 5708 5708 5707 5705 5704 5703 5702 5701 5700 5700 5699 5698 5698 5697 5696 5695 5694 5694 5693 5692 5691 5689 5687 5685 5683
5706 5708 5710 5710 5711 5712 5712 5712 5712 5711 5711 5710 5709 5708 5708 5707 5706 5705 5705 5704 5703 5702 5701 5700 5699 5698 5698 5697 5696 5696 5695 5695 5694 5693 5692 5691 5690 5689 5688 5686 5684 5682 5680
5697 5701 5703 5704 5705 5706 5706 5706 5706 5706 5706 5705 5704 5703 5703 5702 5702 5701 5700 5700 5699 5698 5698 5697 5696 5696 5695 5694 5694 5693 5693 5692 5691 5691 5690 5689 5688 5687 5685 5683 5681 5679 5677
5689 5693 5696 5698 5699 5700 5701 5701 5701 5701 5700 5700 5699 5699 5698 5697 5697 5697 5696 5696 5695 5695 5694 5694 5693 5692 5692 5692 5691 5691 5690 5690 5689 5689 5688 5687 5686 5684 5683 5681 5679 5676 5674
5684 5687 5689 5692 5694 5695 5695 5695 5696 5695 5695 5695 5695 5694 5693 5693 5692 5692 5692 5691 5691 5691 5691 5690 5690 5689 5689 5688 5688 5688 5687 5687 5687 5686 5686 5685 5684 5682 5681 5679 5677 5674 5671
5678 5681 5684 5687 5688 5689 5690 5691 5691 5690 5690 5690 5690 5689 5689 5688 5688 5688 5688 5687 5687 5687 5687 5686 5686 5685 5685 5685 5685 5685 5684 5684 5684 5683 5683 5682 5681 5680 5678 5676 5674 5671 5669
5673 5675 5678 5681 5683 5684 5686 5686 5686 5686 5686 5686 5686 5685 5685 5684 5684 5684 5684 5683 5683 5683 5683 5682 5682 5681 5681 5681 5681 5681 5681 5681 5680 5680 5679 5679 5678 5676 5675 5673 5671 5668 5665
5671 5672 5675 5677 5679 5679 5681 5682 5682 5682 5682 5681 5681 5681 5681 5681 5680 5680 5679 5679 5679 5679 5679 5678 5678 5677 5677 5677 5677 5677 5677 5677 5676 5676 5676 5675 5674 5673 5671 5669 5667 5665 5662
5670 5671 5673 5674 5676 5676 5677 5678 5678 5678 5678 5678 5678 5677 5677 5676 5676 5676 5675 5675 5675 5675 5674 5674 5673 5673 5672 5672 5672 5672 5672 5672 5672 5672 5672 5671 5670 5669 5668 5665 5663 5660 5657
5667 5669 5670 5671 5673 5674 5675 5674 5674 5674 5674 5674 5674 5674 5673 5673 5672 5672 5671 5670 5671 5670 5670 5669 5668 5668 5667 5666 5667 5667 5667 5667 5667 5667 5667 5666 5665 5664 5662 5660 5657 5654 5650
5663 5665 5666 5667 5669 5671 5672 5672 5670 5669 5670 5670 5670 5669 5669 5668 5668 5667 5666 5666 5665 5665 5664 5664 5663 5662 5661 5661 5661 5662 5662 5662 5662 5662 5661 5661 5660 5658 5655 5653 5650 5647 5643
5658 5662 5663 5664 5666 5667 5667 5667 5665 5664 5665 5665 5665 5665 5665 5664 5663 5662 5661 5661 5660 5659 5658 5657 5657 5656 5655 5655 5655 5656 5656 5656 5656 5655 5654 5653 5652 5650 5648 5645 5642 5638 5635
5653 5656 5658 5660 5661 5662 5662 5662 5661 5660 5660 5659 5659 5659 5659 5658 5658 5657 5656 5655 5654 5653 5652 5651 5650 5649 5648 5648 5648 5647 5648 5648 5647 5646 5645 5644 5642 5640 5638 5635 5632 5628 5625
5649 5651 5654 5656 5657 5658 5659 5660 5659 5657 5656 5655 5654 5653 5652 5652 5651 5650 5649 5648 5647 5646 5645 5644 5643 5641 5640 5640 5638 5637 5636 5637 5637 5636 5634 5632 5630 5629 5626 5623 5620 5617 5614
5644 5647 5650 5652 5653 5654 5654 5653 5651 5649 5648 5647 5647 5646 5646 5645 5645 5644 5643 5642 5641 5640 5638 5636 5635 5634 5632 5630 5630 5628 5626 5625 5625 5625 5622 5620 5618 5616 5613 5610 5607 5605 5602
5640 5644 5645 5647 5648 5650 5650 5648 5646 5645 5643 5644 5644 5642 5640 5639 5638 5637 5637 5635 5633 5632 5630 5629 5627 5626 5624 5622 5620 5619 5617 5617 5615 5615 5612 5609 5607 5604 5601 5599 5595 5592 5590
5636 5638 5639 5641 5642 5643 5644 5644 5642 5640 5640 5639 5637 5634 5632 5631 5630 5630 5629 5627 5625 5623 5622 5620 5619 5617 5615 5613 5611 5609 5607 5606 5605 5604 5604 5599 5595 5591 5589 5586 5583 5580 5578
5630 5632 5634 5635 5636 5637 5638 5638 5637 5636 5634 5631 5629 5627 5625 5623 5622 5622 5620 5619 5617 5614 5613 5611 5610 5608 5605 5603 5601 5599 5597 5596 5595 5593 5594 5591 5587 5580 5576 5573 5571 5568 5566